Location: *
(49.3500°N, 12.6000°E)
Time: 03:47:11
(UTC+00:00)

Cosmos 2061 Rocket - Pass Details

Date: 18 October 2019
Orbit: 965 x 1013 km, 82.9° (Epoch: 19 November)

Event Time Altitude Azimuth Distance (km) Brightness Sun altitude
Rises 18:53:58 0° 350° (N) 3,701 7.4 -26.6°
Reaches altitude 10° 18:56:31 10° 350° (N) 2,742 6.7 -27.0°
Maximum altitude 19:02:48 86° 264° (W) 981 3.9 -27.9°
Enters shadow 19:04:10 58° 179° (S) 1,127 4.1 -28.1°
